• In Deutschland
  • Länderverzeichnis
  • Für 7 Tage
  • Wassertemperatur
  • Satellitenkarten
  • Wetterkarte
  • Widgets
  • user-avatar
    Anmelden

    Stündliche Wetter Oberursel

    Heute, 12 Dezember, Dienstag

    Zeit Temperatur Niederschläge Wind Luftdruck Luftfeuchtigkeit
    00:00 +3°C° 0,1 mm 5 m/S 722 mmHg 82%
    01:00 +3°C° 0 mm 5 m/S 723 mmHg 84%
    02:00 +2°C° 0,2 mm 6 m/S 724 mmHg 83%
    03:00 +2°C° 0,2 mm 6 m/S 725 mmHg 82%
    04:00 0°C° 0,2 mm 7 m/S 727 mmHg 80%
    05:00 -1°C° 0 mm 6 m/S 728 mmHg 80%
    06:00 -1°C° 0 mm 6 m/S 730 mmHg 80%
    07:00 -1°C° 0 mm 6 m/S 732 mmHg 80%
    08:00 0°C° 0 mm 5 m/S 733 mmHg 80%
    09:00 0°C° 0 mm 5 m/S 734 mmHg 79%
    10:00 0°C° 0 mm 5 m/S 736 mmHg 79%
    11:00 +1°C° 0 mm 5 m/S 737 mmHg 78%
    12:00 +1°C° 0 mm 5 m/S 738 mmHg 77%
    13:00 +1°C° 0 mm 5 m/S 738 mmHg 76%
    14:00 +1°C° 0 mm 5 m/S 739 mmHg 77%
    15:00 +1°C° 0 mm 4 m/S 740 mmHg 78%
    16:00 +1°C° 0 mm 4 m/S 740 mmHg 79%
    17:00 0°C° 0 mm 4 m/S 741 mmHg 80%
    18:00 0°C° 0 mm 4 m/S 742 mmHg 81%
    19:00 +1°C° 0 mm 3 m/S 742 mmHg 81%
    20:00 0°C° 0 mm 3 m/S 743 mmHg 83%
    21:00 0°C° 0 mm 3 m/S 743 mmHg 84%
    22:00 +1°C° 0 mm 2 m/S 744 mmHg 86%
    23:00 -1°C° 0 mm 2 m/S 744 mmHg 87%

    Morgen, 13 Dezember, Mittwoch

    Zeit Temperatur Niederschläge Wind Luftdruck Luftfeuchtigkeit
    00:00 -1°C° 0 mm 2 m/S 744 mmHg 89%
    01:00 -1°C° 0 mm 2 m/S 744 mmHg 90%
    02:00 -1°C° 0 mm 3 m/S 744 mmHg 91%
    03:00 -1°C° 0 mm 3 m/S 744 mmHg 91%
    04:00 -1°C° 0 mm 3 m/S 744 mmHg 92%
    05:00 -2°C° 0 mm 4 m/S 743 mmHg 90%
    06:00 -1°C° 0 mm 4 m/S 743 mmHg 88%
    07:00 -1°C° 0 mm 5 m/S 743 mmHg 86%
    08:00 0°C° 0 mm 5 m/S 742 mmHg 83%
    09:00 -1°C° 0 mm 6 m/S 742 mmHg 81%
    10:00 -1°C° 0 mm 6 m/S 741 mmHg 79%
    11:00 +1°C° 0,4 mm 6 m/S 740 mmHg 79%
    12:00 0°C° 0,4 mm 7 m/S 739 mmHg 79%
    13:00 +2°C° 0,4 mm 7 m/S 739 mmHg 78%
    14:00 +2°C° 0,6 mm 7 m/S 738 mmHg 80%
    15:00 +2°C° 0,6 mm 6 m/S 737 mmHg 82%
    16:00 +2°C° 0,6 mm 6 m/S 736 mmHg 84%
    17:00 +2°C° 0,6 mm 6 m/S 735 mmHg 85%
    18:00 +2°C° 0,6 mm 6 m/S 735 mmHg 85%
    19:00 +3°C° 0,6 mm 6 m/S 734 mmHg 86%
    20:00 +3°C° 0,2 mm 6 m/S 733 mmHg 86%
    21:00 +4°C° 0,2 mm 6 m/S 732 mmHg 85%
    22:00 +4°C° 0,2 mm 7 m/S 731 mmHg 85%
    23:00 +4°C° 0,7 mm 7 m/S 730 mmHg 85%

    übermorgen, 14 Dezember, Donnerstag

    Zeit Temperatur Niederschläge Wind Luftdruck Luftfeuchtigkeit
    00:00 +5°C° 0,7 mm 7 m/S 730 mmHg 84%
    01:00 +5°C° 0,7 mm 7 m/S 730 mmHg 84%
    02:00 +4°C° 0,3 mm 6 m/S 730 mmHg 83%
    03:00 +3°C° 0,3 mm 6 m/S 729 mmHg 81%
    04:00 +3°C° 0,3 mm 5 m/S 729 mmHg 79%
    05:00 +2°C° 0,3 mm 6 m/S 730 mmHg 76%
    06:00 +2°C° 0,3 mm 6 m/S 730 mmHg 72%
    07:00 +2°C° 0,3 mm 7 m/S 731 mmHg 68%
    08:00 +2°C° 0 mm 6 m/S 731 mmHg 67%
    09:00 +1°C° 0 mm 6 m/S 732 mmHg 66%
    10:00 +1°C° 0 mm 6 m/S 733 mmHg 65%
    11:00 +1°C° 0 mm 5 m/S 733 mmHg 65%
    12:00 +2°C° 0 mm 5 m/S 732 mmHg 66%
    13:00 +3°C° 0 mm 5 m/S 731 mmHg 66%
    14:00 +4°C° 0,3 mm 4 m/S 730 mmHg 72%
    15:00 +3°C° 0,3 mm 4 m/S 729 mmHg 77%
    16:00 +3°C° 0,3 mm 4 m/S 728 mmHg 82%
    17:00 +3°C° 0,6 mm 4 m/S 727 mmHg 84%
    18:00 +3°C° 0,6 mm 4 m/S 726 mmHg 87%
    19:00 +3°C° 0,6 mm 4 m/S 726 mmHg 89%
    20:00 +3°C° 0,1 mm 4 m/S 726 mmHg 85%
    21:00 +2°C° 0,1 mm 5 m/S 726 mmHg 81%
    22:00 +1°C° 0,1 mm 6 m/S 727 mmHg 77%
    23:00 +1°C° 0 mm 5 m/S 727 mmHg 78%

    15 Dezember, Freitag

    Zeit Temperatur Niederschläge Wind Luftdruck Luftfeuchtigkeit
    00:00 0°C° 0 mm 5 m/S 728 mmHg 79%
    01:00 0°C° 0 mm 4 m/S 729 mmHg 80%
    02:00 0°C° 0,2 mm 4 m/S 729 mmHg 81%
    03:00 0°C° 0,2 mm 4 m/S 729 mmHg 81%
    04:00 0°C° 0,2 mm 4 m/S 729 mmHg 81%
    05:00 +1°C° 0,1 mm 4 m/S 729 mmHg 82%
    06:00 +1°C° 0,1 mm 5 m/S 729 mmHg 83%
    07:00 +1°C° 0,1 mm 5 m/S 728 mmHg 83%
    08:00 +1°C° 0,3 mm 5 m/S 728 mmHg 83%
    09:00 +1°C° 0,3 mm 6 m/S 728 mmHg 83%
    10:00 +1°C° 0,3 mm 6 m/S 728 mmHg 82%
    11:00 +1°C° 0,6 mm 6 m/S 728 mmHg 82%
    12:00 +1°C° 0,6 mm 6 m/S 728 mmHg 82%
    13:00 +2°C° 0,6 mm 6 m/S 728 mmHg 82%
    14:00 +2°C° 0,6 mm 5 m/S 729 mmHg 83%
    15:00 +1°C° 0,6 mm 5 m/S 729 mmHg 84%
    16:00 +1°C° 0,6 mm 4 m/S 729 mmHg 86%
    17:00 +1°C° 0,1 mm 4 m/S 730 mmHg 86%
    18:00 +1°C° 0,1 mm 3 m/S 730 mmHg 87%
    19:00 +1°C° 0,1 mm 3 m/S 731 mmHg 87%
    20:00 0°C° 0,1 mm 3 m/S 732 mmHg 88%
    21:00 +1°C° 0,1 mm 2 m/S 732 mmHg 90%
    22:00 +1°C° 0,1 mm 2 m/S 733 mmHg 91%
    23:00 +1°C° 0 mm 2 m/S 734 mmHg 91%

    16 Dezember, Samstag

    Zeit Temperatur Niederschläge Wind Luftdruck Luftfeuchtigkeit
    00:00 +1°C° 0 mm 2 m/S 734 mmHg 91%
    01:00 0°C° 0 mm 3 m/S 735 mmHg 91%
    02:00 0°C° 0 mm 3 m/S 735 mmHg 90%
    03:00 0°C° 0 mm 3 m/S 736 mmHg 90%
    04:00 -1°C° 0 mm 3 m/S 736 mmHg 90%
    05:00 0°C° 0 mm 3 m/S 737 mmHg 89%
    06:00 0°C° 0 mm 3 m/S 737 mmHg 89%
    07:00 +1°C° 0 mm 3 m/S 738 mmHg 89%
    08:00 +1°C° 0,1 mm 3 m/S 738 mmHg 89%
    09:00 0°C° 0,1 mm 4 m/S 739 mmHg 89%
    10:00 0°C° 0,1 mm 4 m/S 739 mmHg 88%
    11:00 0°C° 0,2 mm 4 m/S 740 mmHg 88%
    12:00 +1°C° 0,2 mm 4 m/S 740 mmHg 87%
    13:00 +1°C° 0,2 mm 4 m/S 740 mmHg 86%
    14:00 +1°C° 0,3 mm 4 m/S 740 mmHg 86%
    15:00 0°C° 0,3 mm 4 m/S 740 mmHg 87%
    16:00 +1°C° 0,3 mm 3 m/S 740 mmHg 87%
    17:00 +1°C° 0,1 mm 3 m/S 741 mmHg 87%
    18:00 0°C° 0,1 mm 3 m/S 741 mmHg 88%
    19:00 0°C° 0,1 mm 3 m/S 742 mmHg 89%
    20:00 0°C° 0 mm 3 m/S 742 mmHg 89%
    21:00 -1°C° 0 mm 3 m/S 742 mmHg 90%
    22:00 -1°C° 0 mm 2 m/S 743 mmHg 90%
    23:00 -1°C° 0 mm 2 m/S 743 mmHg 90%

    17 Dezember, Sonntag

    Zeit Temperatur Niederschläge Wind Luftdruck Luftfeuchtigkeit
    00:00 -1°C° 0 mm 2 m/S 744 mmHg 90%
    01:00 -2°C° 0 mm 2 m/S 744 mmHg 91%
    02:00 -2°C° 0 mm 2 m/S 744 mmHg 91%
    03:00 -2°C° 0 mm 2 m/S 745 mmHg 91%
    04:00 -2°C° 0 mm 2 m/S 745 mmHg 91%
    05:00 -2°C° 0 mm 2 m/S 745 mmHg 91%
    06:00 -2°C° 0 mm 2 m/S 746 mmHg 91%
    07:00 -2°C° 0 mm 2 m/S 746 mmHg 91%
    08:00 -1°C° 0 mm 2 m/S 747 mmHg 90%
    09:00 -1°C° 0 mm 3 m/S 747 mmHg 89%
    10:00 -1°C° 0 mm 3 m/S 748 mmHg 88%
    11:00 0°C° 0 mm 3 m/S 748 mmHg 87%
    12:00 0°C° 0 mm 3 m/S 748 mmHg 86%
    13:00 +1°C° 0 mm 3 m/S 748 mmHg 85%
    14:00 +1°C° 0 mm 3 m/S 749 mmHg 86%
    15:00 +1°C° 0 mm 3 m/S 749 mmHg 87%
    16:00 +2°C° 0 mm 2 m/S 749 mmHg 88%
    17:00 +1°C° 0,1 mm 2 m/S 750 mmHg 89%
    18:00 0°C° 0,1 mm 3 m/S 750 mmHg 90%
    19:00 0°C° 0,1 mm 3 m/S 750 mmHg 90%
    20:00 0°C° 0,2 mm 3 m/S 751 mmHg 90%
    21:00 0°C° 0,2 mm 3 m/S 751 mmHg 90%
    22:00 0°C° 0,2 mm 3 m/S 751 mmHg 90%
    23:00 0°C° 0,1 mm 3 m/S 751 mmHg 91%
    Mehr zeigen